Weather in Hillah

Iraq     32°28′20″N   44°25′23″E
temp.,
°C
wind,
m/s
gust,
m/s
humid.,
%
clouds,
%
prec.,
mm/h
press.,
hPa
HPBL,
m
13 june, sun
sun1300:00+31nw815160 0.0 1007396
03:00+29nnw714210 0.0 1006277
06:00+28nnw715220 0.0 1007383
09:00+35nnw1013140 0.0 10081259
12:00+39nnw1113100 0.0 10071787
15:00+40nnw1114100 0.0 10052178
18:00+38nnw912110 0.0 10051821
21:00+34nnw714110 0.0 1007408
14 june, mon
mon1400:00+32n48150 0.0 1005162
03:00+30nnw46150 0.0 100491
06:00+30nw58150 0.0 1005151
09:00+37nnw79110 0.0 1005964
12:00+41nnw911100 0.0 10042238
15:00+43nw101280 0.0 10022655
18:00+41nw91190 0.0 10021801
21:00+36nw713120 0.0 1002275
15 june, tue
tue1500:00+34nnw511130 0.0 1001188
03:00+32nnw58140 0.0 1000140
06:00+31wnw712140 0.0 1002222
09:00+39nw1112110 0.0 1002842
12:00+44nnw101080 0.0 10011451
15:00+46nw8870 0.0 9992699
18:00+43nw9980 0.0 9991389
21:00+38nw916120 0.0 1001447
16 june, wed
wed1600:00+35nw1018160 0.0 1001482
03:00+32nnw1018200 0.0 1001446
06:00+32nnw816160 0.0 1002451
09:00+37nnw1012120 0.0 10031004
12:00+41nw111380 0.0 10031812
15:00+42nw111260 0.0 10012071
18:00+40nw101270 0.0 10011854
21:00+36nw915110 0.0 1003473
17 june, thu
thu1700:00+34nw917150 0.0 1003400
03:00+31nnw715210 0.0 1003351
06:00+30nw817210 0.0 1004541
09:00+34nw1315190 0.0 10051049
12:00+38nw1314120 0.0 10041566
15:00+40nw1213110 0.0 10031952
18:00+38nw1113110 0.0 10031720
21:00+34nw1016120 0.0 1004591